Hourly Data Report for September 13, 2016

SHEARWATER RCS
NOVA SCOTIA

44°37'47.000" N
63°30'48.000" W
24.00 m
8205092
71264
AAW

Download Data

Hourly Data (September 2016)
Hourly Data Report for September 13, 2016
TIME Temp Definition
°C
Dew Point Definition
°C
Rel Hum Definition
%
Wind Dir Definition
10's deg

Wind Spd Definition
km/h
Visibility Definition
km
Stn Press Definition
kPa
Hmdx Definition


Wind Chill Definition


Weather Definition


00:00 13.9 9.5 75 24 5   101.68     LegendNANA
01:00 14.1 9.6 75 28 6   101.70     LegendNANA
02:00 13.3 9.7 79 23 6   101.70     LegendNANA
03:00 13.2 9.8 80 26 5   101.72     LegendNANA
04:00 13.3 9.9 80 29 6   101.73     LegendNANA
05:00 13.2 10.1 81 29 7   101.75     LegendNANA
06:00 13.3 10.1 81 29 6   101.80     LegendNANA
07:00 14.6 10.8 78 31 5   101.81     LegendNANA
08:00 16.8 11.4 71 26 4   101.81     LegendNANA
09:00 20.1 11.6 58 28 5   101.82     LegendNANA
10:00 22.9 10.8 46 22 14   101.78 25   LegendNANA
11:00 23.6 9.0 39 24 18   101.73     LegendNANA
12:00 23.6 9.5 41 23 22   101.68 25   LegendNANA
13:00 24.7 11.4 43 23 17   101.62 27   LegendNANA
14:00 24.3 11.6 45 22 21   101.56 26   LegendNANA
15:00 23.3 12.7 51 22 27   101.55 26   LegendNANA
16:00 22.4 10.9 48 22 25   101.54     LegendNANA
17:00 21.3 10.6 51 22 24   101.55     LegendNANA
18:00 19.2 11.1 60 22 17   101.56     LegendNANA
19:00 17.5 13.1 75 22 15   101.56     LegendNANA
20:00 17.1 13.8 81 23 14   101.61     LegendNANA
21:00 16.9 13.5 81 23 13   101.62     LegendNANA
22:00 16.3 13.7 84 22 12   101.61     LegendNANA
23:00 15.9 13.9 88 22 12   101.58     LegendNANA

Notes on Data Quality.

Legend

  • E = Estimated
  • M = Missing
  • NA = Not Available*
  • [empty] = Indicates an unobserved value
Date modified: